Stündliche Wetter Abbotsford

Heute, 21 Juni, Montag

Zeit Temperatur Niederschläge Wind Luftdruck Luftfeuchtigkeit
00:00 +19°C° 0 mm 1 m/S 752 mmHg 71%
01:00 +19°C° 0 mm 1 m/S 752 mmHg 71%
02:00 +18°C° 0 mm 1 m/S 752 mmHg 72%
03:00 +18°C° 0 mm 1 m/S 752 mmHg 72%
04:00 +18°C° 0 mm 1 m/S 752 mmHg 73%
05:00 +19°C° 0 mm 1 m/S 752 mmHg 68%
06:00 +19°C° 0 mm 0 m/S 752 mmHg 63%
07:00 +21°C° 0 mm 0 m/S 752 mmHg 58%
08:00 +25°C° 0 mm 1 m/S 752 mmHg 54%
09:00 +27°C° 0 mm 1 m/S 751 mmHg 50%
10:00 +28°C° 0 mm 1 m/S 751 mmHg 46%
11:00 +29°C° 0 mm 2 m/S 751 mmHg 44%
12:00 +30°C° 0 mm 2 m/S 751 mmHg 41%
13:00 +31°C° 0 mm 2 m/S 751 mmHg 39%
14:00 +31°C° 0 mm 2 m/S 750 mmHg 39%
15:00 +31°C° 0 mm 2 m/S 750 mmHg 39%
16:00 +30°C° 0 mm 2 m/S 750 mmHg 39%
17:00 +28°C° 0 mm 2 m/S 749 mmHg 49%
18:00 +26°C° 0 mm 1 m/S 749 mmHg 59%
19:00 +24°C° 0 mm 1 m/S 749 mmHg 69%
20:00 +23°C° 0 mm 1 m/S 749 mmHg 71%
21:00 +21°C° 0 mm 1 m/S 749 mmHg 74%
22:00 +19°C° 0 mm 1 m/S 750 mmHg 76%
23:00 +19°C° 0 mm 1 m/S 750 mmHg 76%

Morgen, 22 Juni, Dienstag

Zeit Temperatur Niederschläge Wind Luftdruck Luftfeuchtigkeit
00:00 +18°C° 0 mm 1 m/S 750 mmHg 75%
01:00 +18°C° 0 mm 1 m/S 750 mmHg 74%
02:00 +18°C° 0 mm 1 m/S 750 mmHg 76%
03:00 +16°C° 0 mm 1 m/S 750 mmHg 77%
04:00 +15°C° 0 mm 1 m/S 750 mmHg 79%
05:00 +18°C° 0 mm 1 m/S 750 mmHg 74%
06:00 +20°C° 0 mm 1 m/S 750 mmHg 70%
07:00 +21°C° 0 mm 1 m/S 750 mmHg 66%
08:00 +22°C° 0 mm 1 m/S 750 mmHg 62%
09:00 +23°C° 0 mm 2 m/S 750 mmHg 59%
10:00 +24°C° 0 mm 2 m/S 750 mmHg 55%
11:00 +25°C° 0 mm 2 m/S 750 mmHg 53%
12:00 +26°C° 0 mm 2 m/S 750 mmHg 52%
13:00 +27°C° 0 mm 2 m/S 750 mmHg 50%
14:00 +27°C° 0 mm 2 m/S 750 mmHg 50%
15:00 +27°C° 0 mm 2 m/S 749 mmHg 50%
16:00 +27°C° 0 mm 2 m/S 749 mmHg 51%
17:00 +25°C° 0 mm 2 m/S 749 mmHg 58%
18:00 +24°C° 0 mm 1 m/S 749 mmHg 65%
19:00 +23°C° 0 mm 1 m/S 748 mmHg 72%
20:00 +21°C° 0 mm 1 m/S 749 mmHg 77%
21:00 +19°C° 0 mm 1 m/S 749 mmHg 82%
22:00 +18°C° 0 mm 1 m/S 749 mmHg 87%
23:00 +16°C° 0 mm 1 m/S 750 mmHg 87%

übermorgen, 23 Juni, Mittwoch

Zeit Temperatur Niederschläge Wind Luftdruck Luftfeuchtigkeit
00:00 +16°C° 0 mm 1 m/S 750 mmHg 87%
01:00 +15°C° 0 mm 1 m/S 750 mmHg 87%
02:00 +15°C° 0 mm 1 m/S 750 mmHg 90%
03:00 +14°C° 0 mm 1 m/S 751 mmHg 92%
04:00 +13°C° 0 mm 1 m/S 751 mmHg 94%
05:00 +15°C° 0 mm 1 m/S 751 mmHg 88%
06:00 +16°C° 0 mm 1 m/S 752 mmHg 81%
07:00 +18°C° 0 mm 1 m/S 752 mmHg 75%
08:00 +20°C° 0 mm 1 m/S 752 mmHg 69%
09:00 +20°C° 0 mm 2 m/S 752 mmHg 64%
10:00 +23°C° 0 mm 2 m/S 752 mmHg 58%
11:00 +23°C° 0 mm 2 m/S 752 mmHg 55%
12:00 +24°C° 0 mm 2 m/S 752 mmHg 53%
13:00 +25°C° 0 mm 2 m/S 752 mmHg 50%
14:00 +25°C° 0 mm 2 m/S 752 mmHg 49%
15:00 +25°C° 0 mm 2 m/S 752 mmHg 49%
16:00 +26°C° 0 mm 2 m/S 752 mmHg 48%
17:00 +25°C° 0 mm 2 m/S 752 mmHg 56%
18:00 +23°C° 0 mm 1 m/S 752 mmHg 64%
19:00 +22°C° 0 mm 1 m/S 752 mmHg 71%
20:00 +20°C° 0 mm 1 m/S 753 mmHg 76%
21:00 +19°C° 0 mm 1 m/S 753 mmHg 81%
22:00 +16°C° 0 mm 1 m/S 753 mmHg 86%
23:00 +16°C° 0 mm 1 m/S 754 mmHg 86%

24 Juni, Donnerstag

Zeit Temperatur Niederschläge Wind Luftdruck Luftfeuchtigkeit
00:00 +16°C° 0 mm 1 m/S 754 mmHg 86%
01:00 +15°C° 0 mm 1 m/S 754 mmHg 86%
02:00 +15°C° 0 mm 1 m/S 755 mmHg 86%
03:00 +14°C° 0 mm 0 m/S 755 mmHg 86%
04:00 +14°C° 0 mm 0 m/S 755 mmHg 86%
05:00 +16°C° 0 mm 0 m/S 755 mmHg 80%
06:00 +17°C° 0 mm 0 m/S 755 mmHg 75%
07:00 +19°C° 0 mm 0 m/S 756 mmHg 69%
08:00 +22°C° 0 mm 1 m/S 756 mmHg 64%
09:00 +24°C° 0 mm 1 m/S 756 mmHg 58%
10:00 +25°C° 0 mm 2 m/S 756 mmHg 53%
11:00 +26°C° 0 mm 2 m/S 755 mmHg 51%
12:00 +27°C° 0 mm 2 m/S 755 mmHg 49%
13:00 +28°C° 0 mm 2 m/S 755 mmHg 47%
14:00 +28°C° 0 mm 2 m/S 755 mmHg 47%
15:00 +28°C° 0 mm 2 m/S 755 mmHg 48%
16:00 +28°C° 0 mm 2 m/S 755 mmHg 48%
17:00 +27°C° 0 mm 2 m/S 755 mmHg 56%
18:00 +25°C° 0 mm 1 m/S 755 mmHg 64%
19:00 +24°C° 0 mm 1 m/S 755 mmHg 72%
20:00 +22°C° 0 mm 1 m/S 755 mmHg 76%
21:00 +21°C° 0 mm 1 m/S 755 mmHg 79%
22:00 +17°C° 0 mm 0 m/S 756 mmHg 83%
23:00 +17°C° 0 mm 0 m/S 756 mmHg 83%

25 Juni, Freitag

Zeit Temperatur Niederschläge Wind Luftdruck Luftfeuchtigkeit
00:00 +17°C° 0 mm 0 m/S 756 mmHg 84%
01:00 +19°C° 0 mm 1 m/S 756 mmHg 84%
02:00 +17°C° 0 mm 0 m/S 756 mmHg 85%
03:00 +17°C° 0 mm 0 m/S 756 mmHg 87%
04:00 +17°C° 0 mm 0 m/S 756 mmHg 88%
05:00 +18°C° 0 mm 0 m/S 756 mmHg 81%
06:00 +20°C° 0 mm 0 m/S 756 mmHg 75%
07:00 +22°C° 0 mm 0 m/S 756 mmHg 68%
08:00 +26°C° 0 mm 1 m/S 756 mmHg 63%
09:00 +28°C° 0 mm 1 m/S 755 mmHg 58%
10:00 +29°C° 0 mm 1 m/S 755 mmHg 52%
11:00 +31°C° 0 mm 2 m/S 755 mmHg 50%
12:00 +32°C° 0 mm 2 m/S 754 mmHg 48%
13:00 +34°C° 0 mm 2 m/S 754 mmHg 45%
14:00 +34°C° 0 mm 2 m/S 754 mmHg 45%
15:00 +34°C° 0 mm 2 m/S 753 mmHg 45%
16:00 +33°C° 0 mm 1 m/S 753 mmHg 45%
17:00 +31°C° 0 mm 1 m/S 753 mmHg 54%
18:00 +30°C° 0 mm 1 m/S 753 mmHg 63%
19:00 +28°C° 0 mm 1 m/S 753 mmHg 73%
20:00 +26°C° 0 mm 1 m/S 753 mmHg 76%
21:00 +22°C° 0 mm 0 m/S 753 mmHg 80%
22:00 +21°C° 0 mm 0 m/S 754 mmHg 83%
23:00 +20°C° 0 mm 0 m/S 754 mmHg 84%

26 Juni, Samstag

Zeit Temperatur Niederschläge Wind Luftdruck Luftfeuchtigkeit
00:00 +22°C° 0 mm 1 m/S 754 mmHg 85%
01:00 +22°C° 0 mm 1 m/S 754 mmHg 86%
02:00 +22°C° 0 mm 1 m/S 754 mmHg 87%
03:00 +22°C° 0 mm 1 m/S 754 mmHg 88%
04:00 +21°C° 0 mm 1 m/S 754 mmHg 89%
05:00 +23°C° 0 mm 1 m/S 754 mmHg 82%
06:00 +25°C° 0 mm 1 m/S 754 mmHg 76%
07:00 +25°C° 0 mm 0 m/S 754 mmHg 69%
08:00 +28°C° 0 mm 1 m/S 754 mmHg 63%
09:00 +30°C° 0 mm 1 m/S 753 mmHg 57%
10:00 +32°C° 0 mm 2 m/S 753 mmHg 51%
11:00 +32°C° 0 mm 2 m/S 753 mmHg 48%
12:00 +34°C° 0 mm 2 m/S 752 mmHg 45%
13:00 +35°C° 0 mm 2 m/S 752 mmHg 42%
14:00 +35°C° 0 mm 2 m/S 752 mmHg 43%
15:00 +35°C° 0 mm 2 m/S 751 mmHg 43%
16:00 +35°C° 0 mm 2 m/S 751 mmHg 43%
17:00 +31°C° 0 mm 2 m/S 751 mmHg 52%
18:00 +29°C° 0 mm 2 m/S 751 mmHg 61%
19:00 +27°C° 0 mm 1 m/S 751 mmHg 70%
20:00 +25°C° 0 mm 1 m/S 751 mmHg 71%
21:00 +24°C° 0 mm 2 m/S 752 mmHg 71%
22:00 +23°C° 0 mm 2 m/S 752 mmHg 72%
23:00 +22°C° 0 mm 1 m/S 752 mmHg 72%
Mehr zeigen

Wir brauchen deine Erlaubnis

Meteoprog und unser Service Anbieter werden persönliche Daten aufbewahren, so wie Cookies, Geräte Bezeichnung oder ähnliche Technologien von deinem Gerät und Prozess, so wie Persönliche Daten Inhalte und Werbungen, genauso wie social Media und den Verkehr zu analysieren.

  • Aufbewahrung und/oder Zugang zu deiner Geräte Informationen.

    Cookies, Geräte Bezeichnung oder andere Informationen, können aufbewahrt oder Zugang zu deinem Gerät erhalten, für den Grund, der oben angegeben wird.

  • Personalisierte Werbung und Inhalte, Messungen, Einblick in das Publikum und Produkt Entwicklung.

    Werbungen und Inhalte können personalisiert werden, basierend auf ein Profil. Mehr Daten können besser personalisierte Werbungen und Inhalte hinzufügen. Werbung und Inhalte können gezeigt und gemessen werden. Einblicke über das Publikum, welche die Werbung gesehen haben und den Inhalt, können abgeleitet werden. So wie Daten können genutzt werden, um es zu verbessern oder die Benutzer Erfahrung zu verbessern das System und die Software.

Wenn du “Ich stimme zu” klickst, erlaubst du uns, die Cookies zu benutzen die Geräte Bezeichnung, den Web oder ähnliche Technologien zu benutzen. Deine Settings, können in deinem Gerät bei deinem Browser geändert werden.

Für den bestimmten Zweck, berechtigten Interessen beruhen darauf, mehr als auf den Inhalt. Du kannst mehr darüber in unseren Privaten und Cookie Politik lesen.